SCP
10 8 4 3 4 5 6 6 5 5 4 3 3 3 2 2 2 3 3 3 2 2 2 3 3 3 3 4 3 3 2 2 1 1 1 1 1 1 1 1 2 2 2
8 6 4 3 4 5 6 6 6 5 4 4 3 3 2 2 2 3 3 4 3 2 2 3 3 3 3 3 3 3 3 2 2 1 1 1 1 1 1 1 2 2 2
6 5 4 4 4 5 6 6 6 6 5 4 3 3 3 2 3 3 3 4 4 3 2 2 2 2 3 3 3 3 3 2 2 2 2 1 1 1 1 2 2 2 2
5 5 4 4 4 5 6 8 8 7 6 4 3 3 3 3 3 3 3 4 4 3 3 2 2 2 3 3 3 3 3 2 2 2 2 2 2 2 2 2 2 2 2
6 6 5 5 6 6 7 10 11 9 7 5 4 4 3 3 3 3 3 3 3 3 3 3 3 3 3 4 4 3 2 2 2 1 1 1 2 2 2 2 2 2 2
6 6 5 6 7 8 9 11 13 11 8 6 5 5 4 4 3 3 3 2 2 3 4 4 4 3 3 4 4 3 2 2 2 2 1 1 1 1 1 1 1 2 2
5 5 5 6 8 9 10 12 13 11 8 6 6 6 5 4 3 3 2 2 2 3 5 5 5 4 4 4 4 3 2 2 2 2 2 1 1 1 1 1 1 1 2
4 4 5 7 8 10 10 11 11 9 7 7 6 6 6 5 4 3 3 3 2 3 5 7 7 6 5 5 5 4 2 2 2 2 1 1 1 1 1 1 1 1 2
4 5 5 7 8 8 8 7 7 8 7 7 6 6 5 5 4 4 4 3 3 3 5 7 7 7 6 6 5 4 3 2 2 2 1 1 1 1 1 1 1 2 2
4 5 6 6 7 7 6 6 6 7 8 7 5 5 5 4 4 4 4 3 3 3 5 6 7 6 6 6 5 5 3 3 2 2 1 1 1 1 1 1 1 2 2
4 5 6 7 6 6 5 5 6 8 8 7 5 4 4 4 4 4 4 3 3 3 5 6 6 6 6 6 6 5 3 3 2 2 2 1 1 1 1 1 1 2 2
4 5 6 6 6 5 5 5 6 7 8 8 6 5 4 4 4 4 4 4 3 4 5 5 5 5 5 5 5 5 4 3 3 2 2 2 1 1 1 1 1 1 2
5 5 5 5 5 4 5 5 5 6 8 8 7 5 5 4 4 4 4 5 5 5 5 5 5 5 5 5 5 5 5 4 4 3 2 2 1 1 1 1 1 1 1
6 5 5 4 4 5 5 5 5 7 8 8 7 6 5 4 4 5 6 7 6 5 5 5 5 5 5 5 6 6 5 5 4 3 2 2 2 1 1 1 1 1 1
6 6 6 5 6 6 5 6 7 8 8 8 7 6 6 6 6 7 8 8 7 6 5 5 5 4 4 4 5 5 4 4 3 2 2 2 2 1 1 1 1 1 1
6 8 8 7 7 7 6 7 8 9 9 9 9 8 7 7 7 8 9 9 7 6 5 4 4 4 3 2 3 3 3 2 2 2 2 1 1 1 1 1 1 1 1
7 9 10 9 8 8 9 10 10 10 11 12 11 9 8 7 7 8 9 9 8 6 5 4 4 3 2 1 2 2 2 2 2 2 2 1 1 1 1 0 0 0 0
9 10 11 10 10 11 12 13 12 10 10 10 9 8 7 7 7 8 9 10 9 7 5 4 4 3 2 1 1 2 2 3 3 3 2 2 1 1 1 1 0 0 0
11 11 11 11 11 12 12 12 10 8 7 7 7 7 7 7 7 8 9 11 10 8 7 6 5 5 3 1 1 2 3 3 4 4 3 2 1 1 0 0 0 0 0
12 12 12 12 11 11 10 9 7 6 7 7 7 7 7 8 9 10 11 11 10 9 9 8 8 7 5 2 1 1 3 4 5 5 3 2 1 0 0 0 0 0 0
10 11 12 12 10 10 10 9 8 8 8 8 8 9 9 10 11 13 13 13 12 11 11 10 10 9 6 2 0 1 2 4 5 5 3 1 0 0 0 0 0 0 0
10 11 12 12 11 11 12 12 12 12 12 12 11 11 12 12 12 14 15 14 13 12 11 11 11 10 6 2 0 0 1 2 4 4 2 1 0 0 0 0 0 0 0
10 11 12 12 13 13 13 13 16 18 18 15 12 12 14 14 13 14 15 14 14 12 11 11 10 9 6 3 1 0 0 1 2 2 1 0 0 0 0 0 0 0 0
10 10 10 12 14 14 12 12 17 21 18 13 11 11 12 15 15 14 13 12 11 10 9 9 8 7 7 5 2 1 0 0 1 1 0 0 0 0 0 0 0 0 0
11 10 10 13 15 14 11 11 15 17 13 10 9 10 12 14 14 12 9 6 6 6 5 6 5 6 6 5 2 1 1 1 1 1 0 0 0 0 0 0 0 0 0
12 11 11 13 16 15 11 11 13 12 10 9 9 10 13 14 13 10 6 3 2 2 2 3 4 5 5 3 2 1 1 1 1 1 0 0 0 0 0 0 0 0 0
Wind_Speed
12 11 11 11 10 8 8 7 5 4 3 2 2 2 2 1 1 1 1 1 1 1 1 2 1 1 1 2 2 2 2 3 2 2 3 3 4 4 3 3 3 3 4
13 12 10 10 10 8 8 7 6 6 4 3 2 2 1 1 1 1 1 1 1 2 2 1 1 2 1 2 3 3 2 3 2 1 1 2 2 2 3 1 1 2 2
15 13 12 10 11 10 9 8 7 6 5 4 2 2 1 1 0 1 1 1 2 2 2 1 2 2 2 2 3 3 3 3 2 2 2 1 2 1 1 1 1 1 1
15 14 13 12 11 10 10 7 7 6 5 4 3 3 2 2 1 1 1 1 1 2 2 2 2 2 2 2 3 2 2 2 2 2 2 2 1 1 1 1 0 1 1
15 14 13 12 11 10 10 9 7 6 5 4 3 3 2 2 1 1 1 1 2 2 2 2 1 1 2 2 2 2 2 2 2 2 2 2 2 2 2 1 1 1 1
13 13 12 11 10 9 9 9 8 6 5 5 4 3 2 1 1 0 0 1 0 1 1 1 1 1 1 2 2 2 2 2 2 2 1 1 1 2 2 2 1 0 1
11 12 11 11 10 9 9 9 8 6 6 5 4 3 2 2 1 1 1 1 0 0 0 1 1 1 1 2 2 2 2 2 2 2 1 2 2 1 1 1 1 1 0
11 11 11 11 10 9 9 9 8 7 6 5 4 2 2 1 1 1 1 1 1 1 1 1 1 1 1 2 2 2 2 1 1 2 2 2 1 1 1 1 1 1 1
12 12 12 12 11 10 9 9 8 7 6 5 4 3 2 1 0 0 0 1 1 1 2 2 2 2 2 3 2 2 2 2 1 2 2 1 1 1 1 1 1 2 1
12 12 12 12 11 10 9 8 8 7 5 5 4 3 3 2 1 1 2 2 2 3 3 3 2 2 2 3 2 2 2 2 2 1 2 2 2 1 1 1 0 0 1
11 12 11 12 11 11 10 9 8 7 6 4 3 3 3 3 2 2 2 2 2 2 2 2 2 2 2 2 2 3 3 3 3 3 3 3 3 3 2 2 2 1 2
9 11 12 11 10 10 10 9 8 7 6 5 5 4 3 3 3 3 2 2 2 2 2 2 3 3 3 3 3 4 4 4 5 4 4 4 4 4 3 2 2 2 2
9 10 10 10 9 9 9 9 8 8 7 7 6 5 4 4 3 3 3 3 2 2 3 3 3 3 3 4 4 4 4 5 5 5 5 5 5 4 4 3 3 2 3
9 9 9 8 9 9 8 8 8 8 8 7 6 5 4 4 4 3 3 3 3 3 3 3 3 3 4 5 4 4 4 5 6 6 6 6 6 6 4 4 4 4 4
10 9 9 9 8 8 8 7 7 7 7 7 6 6 5 4 4 4 3 3 3 4 4 3 4 4 5 6 5 4 5 5 5 6 7 8 9 10 7 5 4 4 4
10 10 9 9 9 8 7 7 7 7 7 6 6 6 6 5 4 4 4 4 4 4 4 5 6 7 6 8 9 6 5 5 5 5 5 6 8 9 10 10 9 8 5
9 10 10 9 8 8 7 7 8 7 7 6 6 6 6 5 4 5 5 5 4 4 5 6 6 7 7 10 10 9 5 6 6 6 5 6 7 7 5 6 8 9 9
8 9 9 9 8 8 8 7 8 8 7 6 6 5 5 5 5 4 5 5 4 4 4 5 6 6 7 9 9 7 5 6 6 6 6 6 6 7 6 6 7 7 7
7 7 8 8 8 8 8 8 8 7 7 7 6 5 5 5 5 5 5 5 4 4 5 5 5 6 6 7 8 6 3 5 6 7 7 6 6 8 8 5 5 6 5
6 6 7 8 8 8 8 8 7 7 6 6 6 5 5 5 5 5 5 5 4 5 5 5 5 5 5 7 8 7 2 4 5 5 6 9 8 8 8 5 5 5 4
9 7 7 7 6 7 7 7 7 6 5 6 6 5 5 5 6 5 5 5 5 5 5 5 5 5 5 6 8 8 3 3 4 5 5 5 8 8 8 6 4 3 2
9 8 7 6 5 6 7 7 6 6 6 6 6 6 5 5 6 6 5 5 5 5 5 5 5 4 4 5 6 8 8 6 5 5 4 4 5 6 6 4 4 5 4
8 7 7 7 6 6 7 7 7 6 7 7 6 6 6 5 6 5 5 4 4 4 4 4 4 4 4 4 6 7 8 8 5 4 5 4 2 1 1 2 4 4 2
7 7 7 7 6 7 7 7 7 7 7 7 7 6 6 6 5 3 4 3 3 3 3 3 4 4 4 3 3 3 4 5 4 3 2 2 1 1 1 1 1 1 2
5 6 6 7 7 7 7 7 7 7 8 7 6 6 6 6 5 4 3 3 3 2 2 2 3 3 4 3 3 3 2 2 2 1 1 1 1 1 1 1 1 1 1
4 5 6 7 7 8 7 7 7 8 8 7 6 5 5 5 5 6 5 9 7 8 9 7 6 5 6 7 7 6 5 4 3 1 0 1 1 1 1 1 1 1 2
Wind_Direction
169 164 166 163 158 157 160 160 171 166 174 187 201 210 207 214 206 173 138 131 294 302 287 309 330 293 287 290 297 282 269 255 246 272 286 271 244 236 230 231 216 191 185
168 167 170 167 162 163 164 164 175 172 186 196 204 209 218 218 187 138 131 175 248 276 259 234 269 269 262 271 276 267 259 260 236 215 256 287 295 277 259 241 202 198 158
171 172 177 175 173 171 173 178 176 174 185 185 197 220 184 259 200 159 173 213 231 248 281 271 272 278 258 253 254 258 243 252 270 225 199 215 238 275 275 229 184 135 126
173 174 178 178 179 175 174 173 169 170 177 188 202 205 199 206 200 183 172 199 223 252 254 262 260 281 290 280 266 264 264 256 261 256 223 229 237 205 286 316 63 163 121
173 173 176 175 179 176 171 167 162 167 173 184 196 205 221 224 207 183 168 204 220 244 260 257 276 282 289 301 294 307 287 263 256 260 254 247 247 240 220 252 310 14 61
169 169 171 167 170 171 168 161 159 165 170 181 191 197 214 240 299 41 295 222 221 235 257 285 295 305 301 302 301 302 293 285 281 279 272 245 231 228 220 213 227 218 2
167 163 160 157 161 165 160 155 154 163 169 174 183 190 201 199 226 258 261 282 341 28 4 335 357 323 309 313 315 313 306 304 295 287 278 264 249 247 225 210 217 175 257
162 155 152 151 156 157 153 152 155 162 167 169 170 176 177 186 204 245 302 12 7 20 33 24 6 353 338 334 331 325 309 317 308 306 297 292 284 277 233 213 189 208 254
153 154 154 155 157 156 153 152 150 153 157 161 156 155 139 146 183 98 359 21 16 25 21 26 21 9 5 349 352 355 336 347 354 341 338 323 327 320 306 277 194 196 205
155 152 152 152 151 149 143 141 141 143 143 150 156 146 136 134 106 71 69 46 24 20 16 21 22 16 11 358 359 17 0 24 29 21 15 8 354 344 2 14 359 103 151
144 142 142 142 142 141 141 137 137 138 137 138 133 120 122 120 110 87 71 59 40 23 19 17 22 21 15 8 20 40 24 35 34 31 31 23 22 18 17 34 43 59 108
132 136 136 136 140 143 142 141 142 143 143 137 126 120 117 117 111 98 80 69 60 44 34 26 26 30 32 28 37 42 39 39 39 36 32 27 32 33 25 30 42 67 102
130 132 135 138 139 138 136 140 145 144 142 135 130 127 123 116 107 92 81 74 67 54 47 45 44 43 38 41 44 47 52 51 48 44 43 33 34 35 32 34 31 48 73
137 138 135 135 133 131 133 138 141 140 138 134 132 130 126 118 109 100 92 86 82 72 58 52 51 54 50 42 45 57 57 62 62 57 51 43 42 35 29 44 39 52 68
144 139 139 133 133 136 140 139 137 133 133 135 137 137 129 119 112 107 100 88 79 78 67 59 52 50 56 39 35 57 70 66 71 71 70 65 63 58 52 55 47 54 66
150 143 137 138 141 143 146 140 136 133 133 137 139 132 126 124 120 113 102 92 81 72 66 63 60 55 49 27 33 46 67 63 62 64 74 83 65 63 65 65 60 61 69
151 147 146 146 145 148 143 140 137 136 137 135 134 132 132 131 126 120 110 102 93 83 72 73 75 71 47 32 33 40 63 66 58 53 49 57 56 50 49 68 71 61 57
147 142 143 145 147 144 140 138 141 142 141 139 137 136 138 133 124 116 112 106 100 93 85 82 84 82 58 39 34 33 77 74 66 58 54 62 53 37 33 58 66 62 51
136 139 141 143 142 141 140 140 142 143 144 143 141 139 136 132 128 121 115 110 107 101 94 88 84 83 65 37 30 17 91 89 80 72 58 53 53 29 35 57 70 76 72
116 121 129 133 133 137 139 139 138 140 141 138 136 132 132 131 127 122 118 115 113 110 105 95 86 85 76 42 32 16 80 101 102 94 78 57 48 38 39 53 60 59 47
122 125 127 122 125 128 132 133 133 135 132 129 127 127 126 124 121 116 118 121 117 110 106 103 93 83 77 63 43 42 49 59 91 94 83 62 48 46 40 44 56 46 13
128 126 118 113 120 127 131 130 131 132 128 124 124 123 125 129 122 121 123 124 126 125 122 119 114 102 86 67 62 61 58 52 72 84 92 87 63 48 40 41 22 9 7
128 126 124 122 127 132 135 136 135 133 130 126 126 125 124 114 121 131 136 139 148 150 146 147 136 124 115 95 79 74 70 69 75 82 96 107 98 32 34 47 12 5 8
132 132 132 133 134 135 133 134 137 136 134 135 134 134 131 126 123 131 140 146 151 152 148 144 136 133 129 121 110 110 104 101 106 113 125 164 241 275 314 5 10 30 20
137 140 140 142 142 139 136 142 143 141 141 142 141 140 138 138 132 108 71 96 69 71 117 114 121 132 123 113 120 121 110 111 93 114 172 183 173 180 148 109 76 39 27
139 141 144 147 144 144 144 148 150 148 147 150 154 156 155 147 143 129 99 56 74 76 78 81 91 90 106 121 108 94 87 86 99 107 174 114 79 69 81 84 96 81 45